K5NOC-12 Weather Reports


time (UTC)temp
C
wind
direction
speed
KPH
gust
KPH
rain 1hr
cm
rain 24hr
cm
rain mn
cm
humidity
%
barometer
mb
20260510144131 13 5 3.2 9.7 0.00 0.00 0.00 87 1020.9
20260510142630 13 7 3.2 4.8 0.00 0.00 0.00 87 1020.6
20260510141130 13 333 9.7 19.3 0.00 0.00 0.00 85 1020.6
20260510135630 13 16 9.7 8.0 0.00 0.00 0.00 82 1020.3
20260510134130 13 28 9.7 11.3 0.00 0.00 0.00 81 1020.0
20260510132630 13 24 33.8 33.8 0.00 0.00 0.00 82 1019.7
20260510131130 13 353 4.8 8.0 0.00 0.00 0.00 82 1019.2
20260510125630 14 349 9.7 20.9 0.00 0.00 0.00 81 1018.6
20260510124130 14 31 8.0 8.0 0.00 0.00 0.00 80 1018.1
20260510122629 15 5 4.8 4.8 0.00 0.00 0.00 82 1017.7
20260510121129 15 6 4.8 4.8 0.00 0.00 0.00 82 1017.1
20260510115629 15 349 1.6 4.8 0.00 0.00 0.00 81 1016.6
20260510114129 15 355 0.0 0.0 0.00 0.00 0.00 79 1016.4
20260510112629 16 9 1.6 3.2 0.00 0.00 0.00 78 1016.3
20260510111129 16 42 0.0 0.0 0.00 0.00 0.00 76 1015.9
20260510105628 16 69 0.0 0.0 0.00 0.00 0.00 76 1015.7
20260510104128 16 47 1.6 3.2 0.00 0.00 0.00 77 1015.4
20260510102628 16 30 1.6 1.6 0.00 0.00 0.00 78 1015.5
20260510101128 16 86 1.6 3.2 0.00 0.00 0.00 78 1015.0
20260510095628 16 53 0.0 0.0 0.00 0.00 0.00 78 1014.8
20260510094128 16 65 1.6 1.6 0.00 0.00 0.00 78 1014.9
20260510092627 16 108 0.0 1.6 0.00 0.00 0.00 77 1014.6
20260510091127 16 113 1.6 1.6 0.00 0.00 0.00 77 1014.0
20260510085627 16 96 3.2 4.8 0.00 0.00 0.00 76 1014.0
20260510084127 16 105 0.0 4.8 0.00 0.00 0.00 74 1013.9
20260510082627 17 113 0.0 3.2 0.00 0.00 0.00 73 1013.9
20260510081127 17 47 3.2 3.2 0.00 0.00 0.00 72 1013.7
20260510075627 17 72 0.0 0.0 0.00 0.00 0.00 70 1013.5
20260510074126 18 71 3.2 4.8 0.00 0.00 0.00 69 1013.0
20260510072626 19 17 0.0 0.0 0.00 0.00 0.00 69 1012.7
20260510071126 20 17 0.0 0.0 0.00 0.00 0.00 68 1012.8
20260510065626 20 26 1.6 3.2 0.00 0.00 0.00 68 1013.1
20260510064126 20 3 11.3 16.1 0.00 0.00 0.00 68 1013.2
20260510062626 20 22 3.2 4.8 0.00 0.00 0.00 66 1012.8
20260510061125 20 42 0.0 0.0 0.00 0.00 0.00 65 1013.0
20260510055625 21 49 0.0 1.6 0.00 0.00 0.00 64 1013.0
20260510054125 21 13 1.6 3.2 0.00 0.00 0.00 63 1012.8
20260510052625 21 66 0.0 0.0 0.00 0.00 0.00 61 1012.9
20260510051125 21 66 0.0 0.0 0.00 0.00 0.00 60 1012.6
20260510045624 22 95 0.0 1.6 0.00 0.00 0.00 58 1012.3
20260510044124 22 96 0.0 0.0 0.00 0.00 0.00 55 1012.2
20260510042624 22 96 0.0 0.0 0.00 0.00 0.00 51 1012.1
20260510041124 22 96 0.0 0.0 0.00 0.00 0.00 48 1011.8
20260510035624 23 96 0.0 0.0 0.00 0.00 0.00 43 1011.8
20260510034123 23 127 12.9 16.1 0.00 0.00 0.00 42 1011.7
20260510032623 25 274 0.0 0.0 0.00 0.00 0.00 21 1011.3
20260510031123 25 274 0.0 0.0 0.00 0.00 0.00 19 1010.8
20260510025623 25 116 0.0 0.0 0.00 0.00 0.00 19 1010.2
20260510024123 25 122 0.0 0.0 0.00 0.00 0.00 18 1009.7
20260510022623 26 122 0.0 0.0 0.00 0.00 0.00 16 1009.0
20260510021122 27 122 0.0 0.0 0.00 0.00 0.00 16 1008.9
20260510004321 32 336 3.2 8.0 0.00 0.00 0.00 11 1008.0
20260510002821 32 316 3.2 4.8 0.00 0.00 0.00 12 1008.1
20260510001321 32 295 8.0 9.7 0.00 0.00 0.00 11 1008.2
20260509235821 32 203 1.6 4.8 0.00 0.00 0.00 12 1008.2
20260509234321 32 348 1.6 1.6 0.00 0.00 0.00 10 1008.4
20260509232821 32 355 8.0 8.0 0.00 0.00 0.00 11 1008.5
20260509231321 32 265 19.3 20.9 0.00 0.00 0.00 11 1008.5
20260509225820 32 273 11.3 12.9 0.00 0.00 0.00 11 1008.6
20260509224320 33 292 8.0 14.5 0.00 0.00 0.00 11 1008.7
20260509222820 33 253 9.7 19.3 0.00 0.00 0.00 11 1008.6
20260509221320 33 231 9.7 9.7 0.00 0.00 0.00 11 1008.6
20260509215820 33 292 9.7 12.9 0.00 0.00 0.00 13 1008.7
20260509214320 33 256 19.3 20.9 0.00 0.00 0.00 12 1008.9
20260509212820 33 263 11.3 19.3 0.00 0.00 0.00 13 1009.1
20260509211320 33 266 11.3 24.1 0.00 0.00 0.00 14 1009.3
20260509205819 32 261 11.3 12.9 0.00 0.00 0.00 14 1009.6
20260509204319 32 257 14.5 19.3 0.00 0.00 0.00 17 1009.7
20260509202819 32 226 3.2 9.7 0.00 0.00 0.00 19 1009.9
20260509201319 32 235 4.8 8.0 0.00 0.00 0.00 18 1010.1
20260509195819 31 252 4.8 4.8 0.00 0.00 0.00 19 1010.2
20260509194319 31 327 3.2 9.7 0.00 0.00 0.00 20 1010.4
20260509192819 30 244 11.3 12.9 0.00 0.00 0.00 20 1010.8
20260509191318 30 216 8.0 8.0 0.00 0.00 0.00 22 1010.9
20260509185818 30 262 16.1 19.3 0.00 0.00 0.00 21 1011.4
20260509184318 30 242 12.9 19.3 0.00 0.00 0.00 21 1011.5
20260509182818 30 216 11.3 19.3 0.00 0.00 0.00 23 1011.9
20260509181318 29 162 12.9 16.1 0.00 0.00 0.00 25 1012.1
20260509175818 28 178 16.1 19.3 0.00 0.00 0.00 26 1012.4
20260509174318 27 184 8.0 22.5 0.00 0.00 0.00 28 1012.6
20260509172818 27 193 22.5 25.7 0.00 0.00 0.00 30 1012.8
20260509171318 27 163 14.5 19.3 0.00 0.00 0.00 31 1013.1
20260509165817 26 154 9.7 12.9 0.00 0.00 0.00 32 1013.3
20260509164317 26 162 16.1 19.3 0.00 0.00 0.00 32 1013.4
20260509162817 25 184 14.5 16.1 0.00 0.00 0.00 35 1013.6
20260509161317 25 175 9.7 11.3 0.00 0.00 0.00 36 1013.6
20260509155817 24 178 24.1 24.1 0.00 0.00 0.00 36 1013.7
20260509154317 23 137 9.7 9.7 0.00 0.00 0.00 39 1013.8
20260509152817 23 130 11.3 9.7 0.00 0.00 0.00 42 1013.9
20260509151317 22 129 11.3 14.5 0.00 0.00 0.00 46 1014.1
20260509145817 21 116 1.6 4.8 0.00 0.00 0.00 49 1014.2
20260509144316 20 127 3.2 4.8 0.00 0.00 0.00 54 1014.2